sat.trackr.live / text

‹ back to catalog

STARLINK-34684

NORAD 64862 · 2025-152W

PAYLOAD ACTIVE UNKNOWN

§ Identity

Operator
Country
US
Launch date
2025-07-19
Launch site
AFWTR
Launch vehicle
Mass (kg)
RCS (m²)

Purposes: comms

External: N2YO · Heavens-Above · Gunter

§ Orbital elements

Epoch: 2026-09-20T11:59:17.063520Z

Period
93.91 min
Inclination
97.2846°
Eccentricity
0.0002329
Mean motion
15.33449016 rev/d
Perigee alt
463.9 km
Apogee alt
467.1 km
Semi-major
6,843.7 km
B*
4.5331e-4
RAAN
114.0639°
Arg perigee
93.2267°
Mean anomaly
266.9242°
Rev number
6,482

§ Raw data

STARLINK-346841 64862U 25152W   26263.49950305  .00014590  00000+0  45331-3 0  99922 64862  97.2846 114.0639 0002329  93.2267 266.9242 15.33449016 64820

JSON: /api/v1/satellites/64862 · /tle

For live sub-satellite position, see the globe view (requires WebGL).

§ Visibility from observer

Set your observer location to see the next 7 days of passes ≥ 10°. The values pass through the URL so the page stays shareable.

No JS? Fill the form by hand. The geolocation button needs JavaScript.